TimeEDT,TemperatureF,Dew PointF,Humidity,Sea Level PressureIn,VisibilityMPH,Wind Direction,Wind SpeedMPH,Gust SpeedMPH,PrecipitationIn,Events,Conditions,WindDirDegrees,DateUTC
12:53 AM,39.9,37.0,89,30.23,10.0,Calm,Calm,-,N/A,,Clear,0,2013-05-27 04:53:00
1:53 AM,37.9,36.0,93,30.22,10.0,Calm,Calm,-,N/A,,Clear,0,2013-05-27 05:53:00
2:53 AM,37.9,36.0,93,30.23,10.0,Calm,Calm,-,N/A,,Clear,0,2013-05-27 06:53:00
3:53 AM,37.0,35.1,93,30.24,10.0,Calm,Calm,-,N/A,,Clear,0,2013-05-27 07:53:00
4:53 AM,35.1,33.1,92,30.24,10.0,Calm,Calm,-,N/A,,Clear,0,2013-05-27 08:53:00
5:53 AM,36.0,33.1,89,30.25,10.0,Calm,Calm,-,N/A,,Clear,0,2013-05-27 09:53:00
6:53 AM,39.9,37.0,89,30.25,10.0,Calm,Calm,-,N/A,,Clear,0,2013-05-27 10:53:00
7:53 AM,48.0,41.0,77,30.25,10.0,SW,4.6,-,N/A,,Clear,220,2013-05-27 11:53:00
8:53 AM,55.0,42.1,62,30.25,10.0,Calm,Calm,-,N/A,,Clear,0,2013-05-27 12:53:00
9:53 AM,60.1,39.9,47,30.24,10.0,Variable,3.5,-,N/A,,Clear,0,2013-05-27 13:53:00
10:53 AM,64.0,41.0,43,30.23,10.0,SSW,4.6,-,N/A,,Clear,200,2013-05-27 14:53:00
11:53 AM,68.0,36.0,31,30.21,10.0,WSW,9.2,-,N/A,,Clear,250,2013-05-27 15:53:00
12:53 PM,70.0,35.1,28,30.19,10.0,WSW,8.1,-,N/A,,Clear,240,2013-05-27 16:53:00
1:53 PM,72.0,33.1,24,30.17,10.0,WNW,8.1,16.1,N/A,,Clear,300,2013-05-27 17:53:00
2:53 PM,73.0,36.0,26,30.15,10.0,Variable,5.8,-,0.00,Rain,Light Rain,0,2013-05-27 18:53:00
3:53 PM,73.9,36.0,25,30.14,10.0,Variable,5.8,-,0.00,,Clear,0,2013-05-27 19:53:00
4:53 PM,73.9,35.1,24,30.12,10.0,Variable,5.8,-,0.00,Rain,Light Rain,0,2013-05-27 20:53:00
5:53 PM,73.0,36.0,26,30.12,10.0,Variable,3.5,-,0.00,Rain,Light Rain,0,2013-05-27 21:53:00
6:53 PM,72.0,35.1,26,30.13,10.0,Calm,Calm,-,0.00,,Clear,0,2013-05-27 22:53:00
7:53 PM,66.0,39.0,37,30.13,10.0,SW,3.5,-,0.00,,Clear,220,2013-05-27 23:53:00
8:53 PM,57.0,44.1,62,30.14,10.0,Calm,Calm,-,0.00,,Clear,0,2013-05-28 00:53:00
9:53 PM,53.1,44.1,71,30.16,10.0,Calm,Calm,-,N/A,,Clear,0,2013-05-28 01:53:00
10:53 PM,51.1,45.0,80,30.18,10.0,Calm,Calm,-,0.00,,Clear,0,2013-05-28 02:53:00
11:53 PM,48.9,45.0,86,30.18,10.0,Calm,Calm,-,N/A,,Clear,0,2013-05-28 03:53:00